TimeCST,TemperatureF,Dew PointF,Humidity,Sea Level PressureIn,VisibilityMPH,Wind Direction,Wind SpeedMPH,Gust SpeedMPH,PrecipitationIn,Events,Conditions,WindDirDegrees,DateUTC
12:15 AM,28.4,19.4,69,30.44,10.0,Calm,Calm,-,N/A,,Clear,0,2012-11-27 06:15:00
12:35 AM,26.6,19.4,74,30.43,10.0,Calm,Calm,-,N/A,,Clear,0,2012-11-27 06:35:00
12:55 AM,28.4,21.2,74,30.43,10.0,Calm,Calm,-,N/A,,Clear,0,2012-11-27 06:55:00
1:15 AM,23.0,17.6,80,30.43,10.0,Calm,Calm,-,N/A,,Clear,0,2012-11-27 07:15:00
1:55 AM,23.0,17.6,80,30.41,10.0,Calm,Calm,-,N/A,,Clear,0,2012-11-27 07:55:00
2:15 AM,23.0,19.4,86,30.41,10.0,Calm,Calm,-,N/A,,Clear,0,2012-11-27 08:15:00
2:35 AM,19.4,15.8,86,30.41,10.0,Calm,Calm,-,N/A,,Clear,0,2012-11-27 08:35:00
2:55 AM,19.4,15.8,86,30.42,10.0,SW,4.6,-,N/A,,Clear,230,2012-11-27 08:55:00
3:15 AM,19.4,15.8,86,30.43,10.0,WSW,4.6,-,N/A,,Clear,240,2012-11-27 09:15:00
3:55 AM,23.0,21.2,93,30.42,10.0,SSW,3.5,-,N/A,,Clear,210,2012-11-27 09:55:00
4:15 AM,19.4,17.6,93,30.42,10.0,SW,3.5,-,N/A,,Clear,220,2012-11-27 10:15:00
4:35 AM,23.0,19.4,86,30.40,10.0,SSW,5.8,-,N/A,,Clear,200,2012-11-27 10:35:00
4:55 AM,19.4,15.8,86,30.41,10.0,Calm,Calm,-,N/A,,Clear,0,2012-11-27 10:55:00
5:15 AM,19.4,15.8,86,30.39,10.0,WSW,3.5,-,N/A,,Clear,250,2012-11-27 11:15:00
5:35 AM,19.4,17.6,93,30.39,10.0,WSW,4.6,-,N/A,,Clear,250,2012-11-27 11:35:00
5:55 AM,19.4,17.6,93,30.40,10.0,Calm,Calm,-,N/A,,Clear,0,2012-11-27 11:55:00
6:15 AM,19.4,17.6,93,30.40,10.0,Calm,Calm,-,N/A,,Clear,0,2012-11-27 12:15:00
6:35 AM,21.2,17.6,86,30.40,10.0,Calm,Calm,-,N/A,,Clear,0,2012-11-27 12:35:00
6:55 AM,19.4,17.6,93,30.42,10.0,Calm,Calm,-,N/A,,Clear,0,2012-11-27 12:55:00
7:15 AM,19.4,17.6,93,30.41,10.0,Calm,Calm,-,N/A,,Clear,0,2012-11-27 13:15:00
7:35 AM,17.6,14.0,86,30.40,10.0,SW,3.5,-,N/A,,Clear,220,2012-11-27 13:35:00
7:55 AM,19.4,17.6,93,30.40,7.0,Calm,Calm,-,N/A,,Clear,0,2012-11-27 13:55:00
8:15 AM,19.4,17.6,93,30.39,10.0,Calm,Calm,-,N/A,,Clear,0,2012-11-27 14:15:00
8:35 AM,23.0,19.4,86,30.40,10.0,Calm,Calm,-,N/A,,Clear,0,2012-11-27 14:35:00
8:55 AM,28.4,21.2,74,30.40,10.0,Calm,Calm,-,N/A,,Clear,0,2012-11-27 14:55:00
9:35 AM,33.8,24.8,70,30.39,10.0,Calm,Calm,-,N/A,,Clear,0,2012-11-27 15:35:00
9:55 AM,39.2,26.6,61,30.38,10.0,SSW,13.8,-,N/A,,Clear,210,2012-11-27 15:55:00
10:15 AM,41.0,26.6,57,30.39,10.0,SW,11.5,-,N/A,,Clear,230,2012-11-27 16:15:00
10:35 AM,42.8,23.0,46,30.38,10.0,SW,9.2,-,N/A,,Clear,220,2012-11-27 16:35:00
10:55 AM,42.8,21.2,42,30.37,10.0,SSW,12.7,-,N/A,,Clear,210,2012-11-27 16:55:00
11:15 AM,44.6,21.2,39,30.35,10.0,SW,12.7,-,N/A,,Clear,230,2012-11-27 17:15:00
11:35 AM,46.4,19.4,34,30.33,10.0,SSW,16.1,-,N/A,,Clear,200,2012-11-27 17:35:00
11:55 AM,50.0,19.4,30,30.33,10.0,SSW,15.0,23.0,N/A,,Clear,210,2012-11-27 17:55:00
12:15 PM,50.0,19.4,30,30.31,10.0,SSW,16.1,19.6,N/A,,Clear,210,2012-11-27 18:15:00
12:35 PM,50.0,19.4,30,30.30,10.0,SSW,15.0,-,N/A,,Clear,210,2012-11-27 18:35:00
12:55 PM,51.8,21.2,30,30.29,10.0,SW,16.1,25.3,N/A,,Clear,220,2012-11-27 18:55:00
1:15 PM,51.8,21.2,30,30.27,10.0,South,15.0,19.6,N/A,,Clear,190,2012-11-27 19:15:00
1:35 PM,53.6,21.2,28,30.26,10.0,SSW,17.3,24.2,N/A,,Clear,200,2012-11-27 19:35:00
1:55 PM,53.6,21.2,28,30.24,10.0,SSW,18.4,23.0,N/A,,Clear,200,2012-11-27 19:55:00
2:15 PM,53.6,21.2,28,30.23,10.0,SSW,12.7,21.9,N/A,,Clear,200,2012-11-27 20:15:00
2:35 PM,53.6,21.2,28,30.22,10.0,SSW,13.8,20.7,N/A,,Clear,210,2012-11-27 20:35:00
2:55 PM,55.4,21.2,26,30.21,10.0,SSW,15.0,23.0,N/A,,Clear,200,2012-11-27 20:55:00
3:15 PM,55.4,21.2,26,30.21,10.0,SSW,17.3,23.0,N/A,,Clear,200,2012-11-27 21:15:00
3:35 PM,55.4,21.2,26,30.21,10.0,South,13.8,-,N/A,,Clear,190,2012-11-27 21:35:00
3:55 PM,53.6,21.2,28,30.21,10.0,SSW,16.1,-,N/A,,Clear,200,2012-11-27 21:55:00
4:15 PM,53.6,21.2,28,30.20,10.0,SSW,15.0,20.7,N/A,,Clear,200,2012-11-27 22:15:00
4:35 PM,53.6,21.2,28,30.20,10.0,SSW,16.1,21.9,N/A,,Clear,200,2012-11-27 22:35:00
4:55 PM,51.8,21.2,30,30.20,10.0,SSW,16.1,-,N/A,,Clear,200,2012-11-27 22:55:00
5:15 PM,50.0,21.2,32,30.20,10.0,South,9.2,17.3,N/A,,Clear,190,2012-11-27 23:15:00
5:55 PM,44.6,21.2,39,30.20,10.0,SSW,4.6,-,N/A,,Clear,210,2012-11-27 23:55:00
6:35 PM,44.6,21.2,39,30.20,10.0,SSW,6.9,-,N/A,,Clear,210,2012-11-28 00:35:00
6:55 PM,42.8,21.2,42,30.21,10.0,SW,4.6,-,N/A,,Clear,230,2012-11-28 00:55:00
7:15 PM,42.8,21.2,42,30.20,10.0,SW,8.1,-,N/A,,Clear,220,2012-11-28 01:15:00
7:35 PM,42.8,21.2,42,30.21,10.0,SW,9.2,-,N/A,,Clear,220,2012-11-28 01:35:00
7:55 PM,42.8,23.0,46,30.21,10.0,SSW,11.5,-,N/A,,Clear,210,2012-11-28 01:55:00
8:15 PM,41.0,23.0,49,30.21,10.0,SW,9.2,-,N/A,,Clear,220,2012-11-28 02:15:00
8:35 PM,41.0,23.0,49,30.21,10.0,SW,10.4,-,N/A,,Clear,230,2012-11-28 02:35:00
8:55 PM,41.0,23.0,49,30.21,10.0,SW,10.4,-,N/A,,Clear,230,2012-11-28 02:55:00
9:15 PM,41.0,24.8,53,30.21,10.0,SW,10.4,-,N/A,,Clear,220,2012-11-28 03:15:00
9:35 PM,41.0,24.8,53,30.21,10.0,SW,9.2,-,N/A,,Clear,230,2012-11-28 03:35:00
9:55 PM,39.2,24.8,56,30.21,10.0,WSW,6.9,-,N/A,,Clear,240,2012-11-28 03:55:00
10:15 PM,39.2,24.8,56,30.21,10.0,SW,6.9,-,N/A,,Clear,230,2012-11-28 04:15:00
10:35 PM,37.4,24.8,60,30.21,10.0,SW,6.9,-,N/A,,Clear,230,2012-11-28 04:35:00
10:55 PM,37.4,24.8,60,30.21,10.0,SW,4.6,-,N/A,,Clear,230,2012-11-28 04:55:00
11:55 PM,33.8,23.0,65,30.21,10.0,Calm,Calm,-,N/A,,Clear,0,2012-11-28 05:55:00